sat.trackr.live / text

‹ back to catalog

HTV-X1

NORAD 66174 · 2025-241A

PAYLOAD ACTIVE UNKNOWN

§ Identity

Operator
Country
JPN
Launch date
2025-10-26
Launch site
TANSC
Launch vehicle
Mass (kg)
RCS (m²)

Purposes: station

External: N2YO · Heavens-Above · Gunter

§ Orbital elements

Epoch: 2026-05-26T05:38:41.045856Z

Period
92.01 min
Inclination
51.6375°
Eccentricity
0.0007157
Mean motion
15.65005268 rev/d
Perigee alt
368.4 km
Apogee alt
378.1 km
Semi-major
6,751.4 km
B*
2.9012e-4
RAAN
51.4083°
Arg perigee
89.2746°
Mean anomaly
270.9069°
Rev number
3,291

§ Raw data

HTV-X11 66174U 25241A   26146.23519729  .00028651  00000+0  29012-3 0  99932 66174  51.6375  51.4083 0007157  89.2746 270.9069 15.65005268 32916

JSON: /api/v1/satellites/66174 · /tle

For live sub-satellite position, see the globe view (requires WebGL).

§ Visibility from observer

Set your observer location to see the next 7 days of passes ≥ 10°. The values pass through the URL so the page stays shareable.

No JS? Fill the form by hand. The geolocation button needs JavaScript.